Location: Blandford
(50.8667°N, 2.1667°W)
Time: 09:38:35
(UTC+00:00)

Iridium 4 Rocket - Pass Details

Date: 09 April 2020
Orbit: 586 x 903 km, 86.9° (Epoch: 06 June)

Event Time Altitude Azimuth Distance (km) Brightness Sun altitude
Rises 21:31:02 0° 351° (N) 2,864 7.4 -21.9°
Reaches altitude 10° 21:33:19 10° 345° (NNW) 1,938 6.5 -22.1°
Maximum altitude 21:37:20 44° 274° (W) 815 3.9 -22.5°
Enters shadow 21:38:58 29° 221° (SW) 1,083 4.2 -22.7°
